Location: Bühlhof
(48.7849°N, 8.6361°E)
Time: 23:29:05
(UTC+00:00)

Cosmos 1697 Rocket - Pass Details

Date: 19 January 2026
Orbit: 830 x 844 km, 71.0° (Epoch: 18 February)

Event Time Altitude Azimuth Distance (km) Brightness Sun altitude
Rises 18:39:24 0° 328° (NNW) 3,409 6.2 -25.3°
Reaches altitude 10° 18:41:54 10° 323° (NW) 2,471 5.5 -25.8°
Maximum altitude 18:47:21 50° 250° (WSW) 1,067 3.5 -26.7°
Drops below altitude 10° 18:52:47 10° 176° (S) 2,457 5.1 -27.5°
Enters shadow 18:53:57 - 174° (S) 2,889 5.4 -27.7°
